Kalaeloa, HI

4:40 PM HST on August 16, 2017 (GMT -1000)
Kalaeloa (John Rodgers Field)

Weather History for PHJR - November, 2013

Change the Weather History Date:

Saturday, November 30, 2013

  Actual Average (PHHI) Record (PHHI)
Temperature  
Mean Temperature 76 °F -  
Max Temperature 78 °F 75 °F 80 °F (2010)
Min Temperature 73 °F 65 °F 59 °F (2012)
Cooling Degree Days 10    
Growing Degree Days 26 (Base 50)    
Moisture  
Dew Point 69 °F    
Average Humidity 80    
Maximum Humidity 89    
Minimum Humidity 68    
Precipitation  
Precipitation 0.13 in - - ()
Sea Level Pressure  
Sea Level Pressure 29.95 in    
Wind  
Wind Speed 16 mph (SSE)    
Max Wind Speed 22 mph    
Max Gust Speed 28 mph    
Visibility 10 miles    
Events Rain    
Averages and records for this station are not official NWS values.
T = Trace of Precipitation, MM = Missing Value Source: NWS Daily Summary

Daily Weather History Graph

Daily Weather History Graph

Search for Another Location

Airport or City:

Trip Planner

Search our weather history database for the weather conditions in past years. The results will help you decide how hot, cold, wet, or windy it might be!

Date:

Astronomy

Nov. 30, 2013 Rise Set
Actual Time 6:52 AM HST 5:49 PM HST
Civil Twilight 6:29 AM HST 6:13 PM HST
Nautical Twilight 6:01 AM HST 6:40 PM HST
Astronomical Twilight 5:34 AM HST 7:07 PM HST
Moon 4:31 AM HST (11/30) 4:09 PM HST (11/30)
Length of Visible Light 11h 44m
Length of Day
10h 56m
Waning Crescent, 6% of the Moon is Illuminated
Nov 30
Waning Crescent
Dec 2
New
Dec 9
First Quarter
Dec 16
Full
Dec 25
Last Quarter

Hourly Weather History & Observations

Time (HST) Temp. Dew Point Humidity Pressure Visibility Wind Dir Wind Speed Gust Speed Precip Events Conditions
12:12 AM 75.2 °F 71.6 °F 89% 29.95 in 10.0 mi SSW 17.3 mph - 0.00 in   Mostly Cloudy
12:53 AM 73.0 °F 69.1 °F 87% 29.96 in 9.0 mi WSW 12.7 mph - 0.05 in Rain Light Rain
1:14 AM 73.4 °F 69.8 °F 88% 29.94 in 10.0 mi SW 10.4 mph - 0.06 in Rain Light Rain
1:32 AM 73.4 °F 69.8 °F 88% 29.94 in 6.0 mi SW 12.7 mph - 0.08 in Rain Light Rain
1:53 AM 73.9 °F 69.1 °F 85% 29.96 in 10.0 mi SSW 19.6 mph 27.6 mph 0.08 in Rain Light Rain
2:15 AM 75.2 °F 69.8 °F 83% 29.94 in 10.0 mi South 12.7 mph 24.2 mph 0.00 in   Overcast
2:23 AM 75.2 °F 69.8 °F 83% 29.93 in 10.0 mi South 17.3 mph 23.0 mph 0.00 in   Mostly Cloudy
2:42 AM 75.2 °F 68.0 °F 78% 29.93 in 10.0 mi South 17.3 mph - 0.00 in   Partly Cloudy
2:53 AM 75.0 °F 69.1 °F 82% 29.94 in 10.0 mi South 17.3 mph 24.2 mph 0.00 in   Clear
3:53 AM 75.0 °F 69.1 °F 82% 29.92 in 10.0 mi SSE 18.4 mph - N/A   Partly Cloudy
4:53 AM 75.0 °F 68.0 °F 79% 29.91 in 10.0 mi SSE 20.7 mph 25.3 mph N/A   Partly Cloudy
5:53 AM 75.0 °F 69.1 °F 82% 29.91 in 10.0 mi SSE 19.6 mph 25.3 mph N/A   Partly Cloudy
5:56 AM 75.2 °F 69.8 °F 83% 29.89 in 10.0 mi SE 15.0 mph 25.3 mph N/A   Clear
6:53 AM 75.0 °F 66.9 °F 76% 29.95 in 10.0 mi SSE 21.9 mph - N/A   Clear
7:53 AM 75.9 °F 69.1 °F 79% 29.97 in 10.0 mi SSE 18.4 mph - N/A   Clear
8:53 AM 75.9 °F 68.0 °F 76% 29.98 in 10.0 mi SSE 20.7 mph - N/A   Clear
9:53 AM 77.0 °F 69.1 °F 76% 30.00 in 10.0 mi South 16.1 mph - N/A   Clear
10:53 AM 78.1 °F 69.1 °F 74% 29.98 in 10.0 mi SSE 20.7 mph - N/A   Clear
11:53 AM 78.1 °F 68.0 °F 71% 29.98 in 10.0 mi SSE 19.6 mph 26.5 mph N/A   Clear
12:53 PM 78.1 °F 69.1 °F 74% 29.95 in 10.0 mi South 18.4 mph - N/A   Clear
1:53 PM 78.1 °F 68.0 °F 71% 29.94 in 10.0 mi SSE 21.9 mph - N/A   Partly Cloudy
2:53 PM 78.1 °F 68.0 °F 71% 29.92 in 10.0 mi SSE 18.4 mph - N/A   Partly Cloudy
3:53 PM 78.1 °F 66.9 °F 68% 29.92 in 10.0 mi SSE 18.4 mph - N/A   Clear
4:53 PM 75.9 °F 68.0 °F 76% 29.94 in 10.0 mi South 15.0 mph 23.0 mph N/A   Clear
5:53 PM 75.9 °F 69.1 °F 79% 29.94 in 10.0 mi SSE 12.7 mph - N/A   Partly Cloudy
6:53 PM 75.9 °F 70.0 °F 82% 29.96 in 10.0 mi SSE 12.7 mph - N/A   Scattered Clouds
7:13 PM 75.2 °F 69.8 °F 83% 29.95 in 10.0 mi SSE 15.0 mph - N/A   Mostly Cloudy
7:25 PM 75.2 °F 69.8 °F 83% 29.95 in 10.0 mi SSE 13.8 mph - N/A   Mostly Cloudy
7:53 PM 75.9 °F 68.0 °F 76% 29.99 in 10.0 mi SSE 12.7 mph - N/A   Scattered Clouds
8:53 PM 75.9 °F 69.1 °F 79% 29.99 in 10.0 mi SSE 16.1 mph - N/A   Clear
9:53 PM 75.9 °F 70.0 °F 82% 30.00 in 10.0 mi SSE 17.3 mph - N/A   Partly Cloudy
10:53 PM 75.9 °F 71.1 °F 85% 29.99 in 10.0 mi SSE 16.1 mph - N/A   Partly Cloudy
11:53 PM 75.9 °F 69.1 °F 79% 29.97 in 10.0 mi SSE 19.6 mph - N/A   Mostly Cloudy